Location: Bethlehem Lutheran Church
(43.2880°N, 93.2099°W)
Time: 12:01:38
(UTC+00:00)

Daily predictions for brighter satellites

Satellite Brightness Start Highest point End
(mag) Time Altitude Azimuth Time Altitude Azimuth Time Altitude Azimuth
Nadezhda 4 Rocket 4.3 12:00:20 10° NNW 12:06:02 42° W 12:11:46 10° SSW
Cosmos 1943 Rocket 4.2 12:04:42 10° N 12:09:05 23° NE 12:13:25 10° ESE
SKYMED 2 4.3 12:06:02 10° SSW 12:09:56 32° W 12:13:04 14° NW
Cosmos 1634 Rocket 4.0 12:04:10 10° S 12:10:20 88° W 12:16:36 10° N
Milstar 3 Cent rocket 4.5 12:07:03 10° SW 12:10:39 16° S 12:15:27 10° SSE
Cosmos 1331 Rocket 4.5 12:08:00 10° NNW 12:13:13 62° ENE 12:18:21 10° SSE
SKYMED 3 4.4 12:12:25 10° S 12:16:33 69° WSW 12:20:41 10° NNW
COSMOS 2428 2.7 12:13:10 10° SSW 12:18:52 78° WNW 12:24:36 10° NNE
Cosmos 2333 Rocket 3.0 12:14:33 10° WSW 12:19:29 29° NW 12:24:27 10° N
CZ-4C R/B 4.4 12:13:43 10° NNW 12:19:38 29° NE 12:26:32 10° E
SMAP 3.8 12:17:25 10° NNE 12:22:01 57° E 12:26:35 10° S
NOSS 0 Rocket 4.3 12:19:31 10° SSW 12:25:42 70° ESE 12:31:56 10° NNE
Cosmos 1933 3.9 12:24:40 10° NNW 12:28:18 35° W 12:31:53 10° SSW
SJ-7 4.3 12:24:15 10° N 12:28:21 77° WNW 12:32:25 10° SSW
SL-16 R/B 4.0 12:27:49 11° NW 12:28:38 11° NW 12:30:29 10° NNW
Cosmos 1844 Rocket 4.4 12:29:01 12° W 12:30:12 13° W 12:32:34 10° WSW
Cosmos 1076 Rocket 3.8 12:28:29 10° S 12:32:44 73° E 12:37:04 10° NNE
Lacrosse 5 rocket 1.4 12:28:44 10° SW 12:32:58 75° NW 12:37:22 10° NE
SL-08 R/B 4.3 12:30:03 10° SSW 12:34:00 26° W 12:37:54 10° NW
COSMOS 2455 4.1 12:30:25 12° WNW 12:34:14 22° WSW 12:38:40 10° SSW
H-2A R/B 3.3 12:31:35 10° NNW 12:34:44 17° WNW 12:37:55 10° WSW
SJ-11-01 4.3 12:30:15 10° N 12:34:50 57° WNW 12:39:24 10° SSW
Cosmos 1515 3.6 12:32:27 10° NNW 12:36:00 59° W 12:39:33 10° S
Cosmos 1544 2.6 12:33:29 10° SSW 12:36:40 71° W 12:39:53 10° N
Cosmos 1953 Rocket 3.7 12:34:00 10° SSW 12:38:20 53° W 12:42:44 10° N
Cosmos 2279 Rocket 4.0 12:32:24 10° S 12:38:40 81° W 12:44:58 10° N
ATLAS 3B R/B 3.9 12:34:13 10° W 12:39:57 25° NNW 12:46:00 10° NNE
CZ-2D R/B 3.6 12:37:02 10° N 12:40:26 37° WNW 12:43:50 10° SW
Meteor 2-3 Rocket 4.3 12:36:21 10° SW 12:41:20 33° WNW 12:46:22 10° N
USA 281 4.1 12:36:38 10° N 12:41:50 26° NW 12:47:03 10° WSW
BREEZE-M DEB (TANK) 3.7 12:39:37 11° WNW 12:42:59 56° NNE 12:53:39 10° E
Cosmos 2278 Rocket 2.4 12:38:13 10° NNW 12:43:54 78° ENE 12:49:32 10° SSE
Cosmos 2221 2.9 12:41:32 10° NNW 12:45:30 40° W 12:49:29 10° SSW
USA 215 3.5 12:39:28 10° NE 12:45:46 52° NNW 12:52:02 10° WSW
Cosmos 1110 Rocket 4.1 12:41:49 10° NNW 12:47:05 62° WSW 12:52:17 10° S
SeaSat 1 2.7 12:44:00 10° SE 12:48:53 75° ENE 12:53:49 10° NNW
ARGOS 3.9 12:45:34 10° N 12:50:12 30° WNW 12:54:48 10° SW
Cosmos 1862 4.0 12:47:27 10° SW 12:50:53 31° WNW 12:54:22 10° NNW
Cosmos 2237 Rocket 2.5 12:45:21 10° SSW 12:51:00 77° ESE 12:56:40 10° NNE
CZ-2C R/B 3.1 12:47:33 10° N 12:51:05 41° WNW 12:54:39 10° SW
Cosmos 1602 4.2 12:48:02 10° S 12:51:38 62° E 12:55:16 10° NNE
Helios 1B rocket 3.1 12:49:37 10° N 12:53:09 32° WNW 12:56:41 10° SW
Cosmos 2322 4.3 12:50:22 10° WSW 12:55:29 34° NW 13:00:37 10° N
CZ-4B R/B 3.8 12:51:42 10° N 12:55:36 68° WNW 12:59:37 10° SSW
Helios 1A 4.2 23:11:35 10° NE 23:14:51 22° E 23:18:06 10° SSE
SJ-7 4.3 23:11:09 10° SSE 23:15:05 72° ENE 23:19:05 10° N
Cosmos 1500 3.5 23:12:56 10° N 23:16:15 37° ENE 23:19:33 10° SSE
YAOGAN 11 4.2 23:12:38 10° NNE 23:17:11 76° ESE 23:21:43 10° S
CZ-2D R/B 3.3 23:15:46 10° S 23:19:26 81° WSW 23:23:08 10° NNW
Cosmos 2082 3.8 23:14:11 10° S 23:19:42 63° ESE 23:25:16 10° NNE
Lacrosse 5 3.9 23:19:08 10° SE 23:20:10 11° ESE 23:21:13 10° ESE
Cosmos 1726 Rocket 4.2 23:16:27 10° SSW 23:20:50 61° W 23:25:14 10° N
NOSS 3-4 (A) 3.9 23:16:29 10° NW 23:23:33 83° NE 23:31:40 10° SE
NOSS 3-4 (C) 3.9 23:16:39 10° NW 23:23:38 83° NE 23:31:39 10° SE
Cosmos 1437 Rocket 2.5 23:20:35 10° N 23:24:18 79° E 23:28:03 10° SSE
SMAP 3.0 23:21:21 10° SSE 23:25:56 65° ENE 23:30:34 10° N
Cosmos-2242 4.0 23:23:01 10° SSE 23:26:41 27° E 23:30:21 10° NNE
CZ-2C R/B 2.7 23:26:42 10° S 23:30:14 78° WSW 23:33:50 10° NNW
CZ-2C R/B 2.9 23:29:19 10° SSW 23:30:27 12° S 23:31:34 10° SSE
Cosmos 1140 Rocket 4.3 23:26:17 10° N 23:30:43 28° ENE 23:35:06 10° ESE
USA 305 4.0 23:28:28 10° NW 23:31:35 23° NNE 23:33:52 14° ENE
USA 234 3.3 23:26:00 10° NE 23:32:34 75° SE 23:39:05 10° SW
Cosmos 2279 Rocket 4.0 23:26:39 10° N 23:32:55 86° E 23:39:08 10° S
Cosmos 1812 3.5 23:33:51 10° SSE 23:37:02 28° E 23:40:13 10° NNE
Cosmos 2151 3.1 23:33:26 10° N 23:37:43 80° W 23:41:57 10° S
Helios 1B rocket 3.8 23:35:25 10° S 23:39:08 42° W 23:42:54 10° NNW
SL-8 R/B 4.0 23:35:13 10° WNW 23:39:54 52° NNE 23:43:40 15° E
Aureole 3 Rocket 4.4 23:36:44 10° NNW 23:41:06 40° W 23:44:27 10° SSW
CZ-4B R/B 3.5 23:38:09 10° SSE 23:41:43 79° ENE 23:45:20 10° N
APEX 4.1 23:40:40 10° SSE 23:42:58 19° ESE 23:43:30 18° E
NOAA 6 4.4 23:42:47 10° SE 23:47:33 40° ENE 23:52:19 10° N
Meteor 1-31 Rocket 2.6 23:44:08 10° SSE 23:47:48 87° WSW 23:51:32 10° NNW
Meteor 1-20 Rocket 4.4 23:43:57 10° N 23:49:17 45° ENE 23:54:41 10° SSE
Cosmos 1544 4.1 23:47:09 10° NNW 23:50:15 42° W 23:53:19 10° SSW
Nadezhda 4 Rocket 4.0 23:44:49 10° S 23:50:52 62° E 23:56:53 10° NNE
Cosmos 2263 Rocket 2.2 23:47:11 10° SSW 23:52:44 82° WNW 23:58:21 10° NNE
Tiangong 0.5 23:51:19 10° WSW 23:53:41 19° SSW 23:56:01 10° SSE
Cosmos 1844 Rocket 3.9 23:50:22 10° SSE 23:54:25 21° E 23:55:45 19° E
